WetterOnline ( https://www.wetteronline.de )

Wetter aktuell Leck

Aktuelles Wetter: Leck (17m)

6-stündlich | Neueste Meldungen
Ortszeit Temperatur Wetter
Fr, 12.04. 14:00 11.5° C bedeckt
Fr, 12.04. 8:00 11.7° C bedeckt
Fr, 12.04. 2:00 10.9° C bewölkt
Do, 11.04. 20:00 11.6° C bedeckt
Do, 11.04. 14:00 12.2° C bedeckt
Do, 11.04. 8:00 9.7° C leichter Regen
Do, 11.04. 2:00 8.0° C wolkig
Mi, 10.04. 20:00 8.9° C leicht bewölkt
Ortszeit Temperatur Wetter
Fr, 12.04. 17:30 12.0° C bedeckt
Fr, 12.04. 17:20 12.0° C bedeckt
Fr, 12.04. 17:10 12.2° C bedeckt
Fr, 12.04. 17:00 12.2° C bedeckt
Fr, 12.04. 16:50 12.2° C bedeckt
Fr, 12.04. 16:40 12.1° C bedeckt
Fr, 12.04. 16:30 11.8° C bedeckt
Fr, 12.04. 16:00 11.9° C bedeckt
Fr, 12.04. 15:30 12.2° C bedeckt
Fr, 12.04. 15:00 11.6° C bedeckt
Fr, 12.04. 14:30 11.4° C bedeckt
Ortszeit Relative Feuchte Sichtweite
Fr, 12.04. 14:00 96% 8 km
Fr, 12.04. 8:00 97% 7 km
Fr, 12.04. 2:00 95% 20 km
Do, 11.04. 20:00 91% 25 km
Do, 11.04. 14:00 93% 17 km
Do, 11.04. 8:00 93% 4.2 km
Do, 11.04. 2:00 80% 30 km
Mi, 10.04. 20:00 75% 35 km
Ortszeit Relative Feuchte Sichtweite
Fr, 12.04. 17:30 88% 17 km
Fr, 12.04. 17:20 88% -
Fr, 12.04. 17:10 88% -
Fr, 12.04. 17:00 90% 15 km
Fr, 12.04. 16:50 90% -
Fr, 12.04. 16:40 90% -
Fr, 12.04. 16:30 91% 14 km
Fr, 12.04. 16:00 91% 14 km
Fr, 12.04. 15:30 92% 13 km
Fr, 12.04. 15:00 94% 12 km
Fr, 12.04. 14:30 95% 9 km
Ortszeit Niederschlagsmenge Niederschlagsart
Fr, 12.04. 14:00 0.1 l/m2 in 6 Std. Regen
Fr, 12.04. 8:00 0.0 l/m2 in 12 Std. -
Fr, 12.04. 2:00 0.0 l/m2 in 6 Std. -
Do, 11.04. 20:00 3 l/m2 in 12 Std. -
Do, 11.04. 14:00 3 l/m2 in 6 Std. Regen
Do, 11.04. 8:00 2 l/m2 in 12 Std. Regen
Do, 11.04. 2:00 0.0 l/m2 in 6 Std. -
Mi, 10.04. 20:00 0.1 l/m2 in 12 Std. -
Ortszeit Niederschlagsmenge Niederschlagsart
Fr, 12.04. 17:30 0.0 l/m2 in 30 Min -
Fr, 12.04. 17:20 keine Meldung -
Fr, 12.04. 17:10 keine Meldung -
Fr, 12.04. 17:00 0.0 l/m2 in 1 Std. -
Fr, 12.04. 16:50 keine Meldung -
Fr, 12.04. 16:40 keine Meldung -
Fr, 12.04. 16:30 0.0 l/m2 in 30 Min -
Fr, 12.04. 16:00 0.0 l/m2 in 1 Std. -
Fr, 12.04. 15:30 0.0 l/m2 in 30 Min -
Fr, 12.04. 15:00 0.0 l/m2 in 1 Std. -
Fr, 12.04. 14:30 0.0 l/m2 in 30 Min -
Ortszeit Stärke Spitze Richtung
km/h Bft. km/h Grad Sektor
Fr, 12.04. 14:00 31 5 56 240° SW
Fr, 12.04. 8:00 24 4 35 220° SW
Fr, 12.04. 2:00 14 3 25 240° SW
Do, 11.04. 20:00 15 3 44 260° W
Do, 11.04. 14:00 26 4 52 240° SW
Do, 11.04. 8:00 33 5 56 210° SW
Do, 11.04. 2:00 18 3 25 170° S
Mi, 10.04. 20:00 14 3 43 250° W
Ortszeit Stärke Spitze Richtung
km/h Bft. km/h Grad Sektor
Fr, 12.04. 17:30 22 4 36 250° W
Fr, 12.04. 17:20 22 4 - 250° W
Fr, 12.04. 17:10 25 4 - 250° W
Fr, 12.04. 17:00 22 4 37 250° W
Fr, 12.04. 16:50 22 4 - 250° W
Fr, 12.04. 16:40 24 4 - 240° SW
Fr, 12.04. 16:30 22 4 36 240° SW
Fr, 12.04. 16:00 24 4 39 250° W
Fr, 12.04. 15:30 25 4 36 240° SW
Fr, 12.04. 15:00 22 4 40 250° W
Fr, 12.04. 14:30 25 4 40 240° SW
Ortszeit Untergrenze Bedeckung Gattung
total tief tief mittel hoch
Fr, 12.04. 14:00 150 m 8/8 8/8 - - -
Fr, 12.04. 8:00 120 m 8/8 8/8 - - -
Fr, 12.04. 2:00 1080 m 8/8 7/8 - - -
Do, 11.04. 20:00 270 m 8/8 8/8 - - -
Do, 11.04. 14:00 210 m 8/8 8/8 - - -
Do, 11.04. 8:00 450 m 7/8 7/8 - - -
Do, 11.04. 2:00 1500 m 7/8 3/8 - - -
Mi, 10.04. 20:00 6900 m 2/8 2/8 - - -
Ortszeit Bedeckungsgrad in Achtel und Wolkenuntergrenze
Fr, 12.04. 17:30 7(300m) 8(720m)
Fr, 12.04. 17:20 7(300m) 8(720m)
Fr, 12.04. 17:10 8
Fr, 12.04. 17:00 8(270m)
Fr, 12.04. 16:50 8(270m)
Fr, 12.04. 16:40 8
Fr, 12.04. 16:30 8(240m)
Fr, 12.04. 16:00 8(240m)
Fr, 12.04. 15:30 8(210m)
Fr, 12.04. 15:00 8(210m)
Fr, 12.04. 14:30 8(180m)
Ortszeit Luftdruck NN (hPa) Tendenz (hPa in 3 Std.)
Fr, 12.04. 14:00 1025 0,0
Fr, 12.04. 8:00 1026 - 1,3
Fr, 12.04. 2:00 1029 - 0,4
Do, 11.04. 20:00 1028 + 0,9
Do, 11.04. 14:00 1027 + 1,7
Do, 11.04. 8:00 1023 + 0,1
Do, 11.04. 2:00 1025 - 1,4
Mi, 10.04. 20:00 1027 + 0,4
Ortszeit Luftdruck NN (hPa) Tendenz (hPa in 3 Std.)
Fr, 12.04. 17:30 1025 - 0,6
Fr, 12.04. 17:20 1025 keine Meldung
Fr, 12.04. 17:10 1025 keine Meldung
Fr, 12.04. 17:00 1025 - 0,3
Fr, 12.04. 16:50 1025 keine Meldung
Fr, 12.04. 16:40 1025 keine Meldung
Fr, 12.04. 16:30 1025 - 0,3
Fr, 12.04. 16:00 1025 + 0,1
Fr, 12.04. 15:30 1025 + 0,4
Fr, 12.04. 15:00 1025 + 0,2
Fr, 12.04. 14:30 1025 + 0,2
Ortszeit Schneehöhe (cm)
Fr, 12.04. 14:00 0
Fr, 12.04. 8:00 0
Fr, 12.04. 2:00 0
Do, 11.04. 20:00 0
Do, 11.04. 14:00 0
Do, 11.04. 8:00 0
Do, 11.04. 2:00 0
Mi, 10.04. 20:00 0
Ortszeit Schneehöhe (cm)
Fr, 12.04. 17:30 0
Fr, 12.04. 17:20 0
Fr, 12.04. 17:10 -
Fr, 12.04. 17:00 0
Fr, 12.04. 16:50 0
Fr, 12.04. 16:40 -
Fr, 12.04. 16:30 0
Fr, 12.04. 16:00 0
Fr, 12.04. 15:30 0
Fr, 12.04. 15:00 0
Fr, 12.04. 14:30 0
Link zu dieser Seite / Seite empfehlen

Das Wetter in ...